This is the latest recevied weather packets stored in our database for station/object WS2Z. If no packets are shown the sender has not sent any weather packets the latest 10 day(s).
| Time | Temp. | Humidity | Pressure | Rain* | Wind** | Luminosity | Snow |
|---|---|---|---|---|---|---|---|
| 1777723525 | 22.22° C | 92% | 1011.9 hPa | 0 mm | - | 78 W/m² | - |
| 1777722009 | 21.67° C | 93% | 1011.6 hPa | 0 mm | - | 43 W/m² | - |
| 1777721707 | 21.67° C | 93% | 1011.7 hPa | 0 mm | - | 42 W/m² | - |
| 1777721405 | 21.67° C | 93% | 1011.6 hPa | 0 mm | - | 34 W/m² | - |
| 1777721102 | 21.67° C | 93% | 1011.6 hPa | 0 mm | - | 26 W/m² | - |
| 1777720800 | 22.22° C | 93% | 1011.6 hPa | 0 mm | - | 19 W/m² | - |
| 1777720497 | 21.67° C | 93% | 1011.8 hPa | 0 mm | - | 13 W/m² | - |
| 1777720194 | 21.67° C | 93% | 1011.8 hPa | 0 mm | - | 9 W/m² | - |
| 1777719892 | 21.67° C | 93% | 1011.7 hPa | 0 mm | - | 7 W/m² | - |
| 1777719589 | 21.67° C | 93% | 1011.6 hPa | 0 mm | - | 4 W/m² | - |
| 1777719287 | 21.67° C | 93% | 1011.4 hPa | 0 mm | - | 3 W/m² | - |
| 1777718984 | 21.67° C | 93% | 1011.5 hPa | 0 mm | - | 2 W/m² | - |
| 1777718681 | 21.67° C | 93% | 1011.7 hPa | 0 mm | - | 1 W/m² | - |
| 1777718378 | 21.67° C | 93% | 1011.5 hPa | 0 mm | - | 0 W/m² | - |
| 1777718076 | 21.67° C | 93% | 1011.6 hPa | 0 mm | - | 0 W/m² | - |
| 1777717773 | 21.67° C | 93% | 1011.4 hPa | 0 mm | - | 0 W/m² | - |
| 1777717469 | 21.67° C | 93% | 1011.6 hPa | 0 mm | - | 0 W/m² | - |
| 1777717166 | 21.67° C | 92% | 1011.7 hPa | 0 mm | - | 0 W/m² | - |
| 1777716865 | 21.67° C | 92% | 1011.8 hPa | 0 mm | - | 0 W/m² | - |
| 1777716563 | 21.67° C | 92% | 1011.6 hPa | 0 mm | - | 0 W/m² | - |
| 1777716262 | 21.67° C | 92% | 1011.6 hPa | 0 mm | - | 0 W/m² | - |
| 1777715959 | 21.67° C | 92% | 1011.8 hPa | 0 mm | - | 0 W/m² | - |
| 1777715657 | 21.67° C | 92% | 1011.6 hPa | 0 mm | - | 0 W/m² | - |
| 1777715355 | 21.67° C | 92% | 1011.8 hPa | 0 mm | - | 0 W/m² | - |
| 1777715051 | 21.67° C | 92% | 1011.5 hPa | 0 mm | - | 0 W/m² | - |
* Rain latest hour (hover to see other rain measurements)
** Current wind speed in m/s (hover to see current wind gust speed)